Natchitoches, LA

3:37 PM CDT on October 19, 2019 (GMT -0500)
Natchitoches Regional

Weather History for KIER - August, 2019

Change the Weather History Date:

Tuesday, August 20, 2019

  Actual Average Record
Temperature  
Mean Temperature 84 °F -  
Max Temperature 98 °F 94 °F 104 °F (1948)
Min Temperature 71 °F 72 °F 57 °F (1943)
Cooling Degree Days 20    
Growing Degree Days 34 (Base 50)    
Moisture  
Dew Point 74 °F    
Average Humidity 79    
Maximum Humidity 99    
Minimum Humidity 47    
Precipitation  
Precipitation 0.00 in - - ()
Sea Level Pressure  
Sea Level Pressure 30.02 in    
Wind  
Wind Speed 2 mph (SE)    
Max Wind Speed 12 mph    
Max Gust Speed 20 mph    
Visibility 10 miles    
Events Thunderstorm    
Averages and records for this station are not official NWS values.
T = Trace of Precipitation, MM = Missing Value Source: NWS Daily Summary

Daily Weather History Graph

Daily Weather History Graph

Search for Another Location

Airport or City:

Astronomy

Aug. 20, 2019 Rise Set
Actual Time 6:40 AM CDT 7:50 PM CDT
Civil Twilight 6:14 AM CDT 8:16 PM CDT
Nautical Twilight 5:44 AM CDT 8:46 PM CDT
Astronomical Twilight 5:13 AM CDT 9:17 PM CDT
Moon 10:57 PM CDT (8/20) 11:03 AM CDT (8/20)
Length of Visible Light 14h 01m
Length of Day
13h 10m
Waning Gibbous, 77% of the Moon is Illuminated
Aug 20
Waning Gibbous
Aug 23
Last Quarter
Aug 30
New
Sep 5
First Quarter
Sep 13
Full

Hourly Weather History & Observations

Time (CDT) Temp. Heat Index Dew Point Humidity Pressure Visibility Wind Dir Wind Speed Gust Speed Precip Events Conditions
12:15 AM 74.3 °F - 71.6 °F 91% 30.01 in 10.0 mi Calm Calm - N/A   Clear
12:35 AM 73.4 °F - 71.6 °F 94% 30.01 in 10.0 mi Calm Calm - N/A   Clear
12:55 AM 73.4 °F - 71.6 °F 94% 30.01 in 10.0 mi Calm Calm - N/A   Clear
1:15 AM 73.9 °F - 71.6 °F 92% 30.01 in 10.0 mi Calm Calm - N/A   Clear
1:35 AM 73.4 °F - 71.6 °F 94% 30.01 in 10.0 mi Calm Calm - N/A   Clear
1:55 AM 72.9 °F - 71.6 °F 96% 30.01 in 10.0 mi Calm Calm - N/A   Clear
2:15 AM 73.6 °F - 71.8 °F 94% 30.01 in 10.0 mi Calm Calm - N/A   Clear
2:35 AM 72.7 °F - 71.4 °F 96% 30.01 in 10.0 mi SE 3.5 mph - N/A   Clear
2:55 AM 73.4 °F - 71.6 °F 94% 30.01 in 10.0 mi Calm Calm - N/A   Clear
3:15 AM 73.4 °F - 71.6 °F 94% 30.01 in 10.0 mi SSE 3.5 mph - N/A   Clear
3:35 AM 73.2 °F - 71.6 °F 95% 30.01 in 10.0 mi SSE 5.8 mph - N/A   Clear
3:55 AM 73.0 °F - 71.6 °F 95% 30.01 in 10.0 mi Calm Calm - N/A   Clear
4:15 AM 72.7 °F - 71.6 °F 96% 30.01 in 10.0 mi Calm Calm - N/A   Clear
4:35 AM 72.5 °F - 71.6 °F 97% 30.01 in 10.0 mi Calm Calm - N/A   Clear
4:55 AM 72.0 °F - 71.2 °F 98% 30.01 in 10.0 mi Calm Calm - N/A   Clear
5:15 AM 71.8 °F - 71.2 °F 98% 30.01 in 10.0 mi Calm Calm - N/A   Clear
5:35 AM 72.0 °F - 71.6 °F 99% 30.02 in 10.0 mi Calm Calm - N/A   Clear
5:55 AM 71.6 °F - 71.1 °F 98% 30.02 in 10.0 mi Calm Calm - N/A   Clear
6:15 AM 71.8 °F - 71.2 °F 98% 30.03 in 10.0 mi Calm Calm - N/A   Clear
6:35 AM 71.8 °F - 71.2 °F 98% 30.04 in 10.0 mi Calm Calm - N/A   Clear
6:55 AM 72.5 °F - 72.0 °F 98% 30.04 in 10.0 mi Calm Calm - N/A   Clear
7:15 AM 73.0 °F - 72.5 °F 98% 30.05 in 10.0 mi SE 3.5 mph - N/A   Clear
7:35 AM 73.9 °F - 73.0 °F 97% 30.05 in 7.0 mi ESE 3.5 mph - N/A   Mostly Cloudy
7:55 AM 74.5 °F - 73.6 °F 97% 30.05 in 3.0 mi Calm Calm - N/A   Overcast
8:15 AM 75.9 °F - 74.1 °F 94% 30.05 in 4.0 mi South 3.5 mph - N/A   Overcast
8:35 AM 77.5 °F - 74.7 °F 91% 30.05 in 7.0 mi South 3.5 mph - N/A   Overcast
9:15 AM 80.8 °F 86.9 °F 75.9 °F 85% 30.06 in 10.0 mi SE 4.6 mph - N/A   Scattered Clouds
9:35 AM 82.4 °F 90.3 °F 76.3 °F 82% 30.06 in 10.0 mi SE 4.6 mph - N/A   Scattered Clouds
9:55 AM 84.0 °F 93.7 °F 76.8 °F 79% 30.06 in 10.0 mi SSE 5.8 mph - N/A   Scattered Clouds
10:15 AM 86.0 °F 97.8 °F 77.5 °F 76% 30.06 in 7.0 mi SE 3.5 mph - N/A   Scattered Clouds
10:35 AM 88.3 °F 102.3 °F 78.1 °F 72% 30.06 in 7.0 mi Calm Calm - N/A   Mostly Cloudy
10:55 AM 89.2 °F 103.7 °F 78.3 °F 70% 30.06 in 7.0 mi SSE 3.5 mph - N/A   Scattered Clouds
11:15 AM 90.5 °F 104.7 °F 77.7 °F 66% 30.06 in 10.0 mi Calm Calm - N/A   Scattered Clouds
11:35 AM 91.9 °F 108.1 °F 78.8 °F 65% 30.06 in 7.0 mi ENE 5.8 mph - N/A   Scattered Clouds
11:55 AM 91.9 °F 105.9 °F 77.0 °F 62% 30.06 in 7.0 mi ENE 4.6 mph - N/A   Scattered Clouds
12:15 PM 93.0 °F 106.7 °F 76.6 °F 59% 30.06 in 10.0 mi East 5.8 mph - N/A   Scattered Clouds
12:35 PM 92.8 °F 104.8 °F 75.6 °F 57% 30.06 in 10.0 mi ENE 4.6 mph - N/A   Clear
12:55 PM 93.4 °F 106.2 °F 75.9 °F 57% 30.05 in 7.0 mi East 3.5 mph - N/A   Clear
1:15 PM 94.3 °F 104.9 °F 73.9 °F 52% 30.04 in 10.0 mi Calm Calm - N/A   Clear
1:35 PM 95.2 °F 106.4 °F 74.5 °F 51% 30.03 in 10.0 mi ESE 3.5 mph - N/A   Clear
1:55 PM 95.0 °F 104.5 °F 73.2 °F 49% 30.03 in 10.0 mi Calm Calm - N/A   Clear
2:15 PM 95.5 °F 106.5 °F 74.1 °F 50% 30.02 in 10.0 mi Calm Calm - N/A   Clear
2:35 PM 97.0 °F 110.1 °F 75.6 °F 50% 30.01 in 10.0 mi East 5.8 mph - N/A   Scattered Clouds
3:15 PM 96.4 °F 108.0 °F 74.3 °F 49% 30.00 in 10.0 mi SE 8.1 mph - N/A   Scattered Clouds
3:35 PM 97.2 °F 109.7 °F 75.0 °F 49% 29.98 in 10.0 mi SE 8.1 mph - N/A   Scattered Clouds
3:55 PM 97.2 °F 110.6 °F 75.7 °F 50% 29.99 in 10.0 mi ESE 8.1 mph - N/A   Clear
4:15 PM 98.1 °F 110.4 °F 74.5 °F 47% 29.98 in 10.0 mi East 3.5 mph - N/A   Clear
4:35 PM 97.3 °F 110.2 °F 75.6 °F 49% 29.98 in 10.0 mi ESE 6.9 mph - N/A   Scattered Clouds
4:55 PM 96.6 °F 109.2 °F 75.0 °F 50% 29.97 in 10.0 mi East 10.4 mph - N/A   Scattered Clouds
5:15 PM 95.2 °F 107.1 °F 75.2 °F 52% 29.98 in 10.0 mi East 5.8 mph - N/A   Clear
5:35 PM 94.6 °F 108.0 °F 76.1 °F 55% 29.97 in 10.0 mi East 4.6 mph - N/A   Clear
5:55 PM 93.2 °F 105.0 °F 75.4 °F 56% 29.98 in 10.0 mi ESE 4.6 mph - N/A Thunderstorm Clear
6:15 PM 91.4 °F 102.5 °F 75.2 °F 59% 29.99 in 10.0 mi SSE 6.9 mph - N/A Thunderstorm Clear
6:35 PM 89.1 °F 100.2 °F 75.9 °F 65% 29.99 in 10.0 mi SW 11.5 mph 19.6 mph N/A Thunderstorm Mostly Cloudy
6:55 PM 85.8 °F 95.1 °F 75.4 °F 71% 29.98 in 10.0 mi SW 10.4 mph - N/A   Scattered Clouds
7:15 PM 84.6 °F 93.5 °F 75.7 °F 75% 29.98 in 10.0 mi SW 6.9 mph - N/A   Clear
7:35 PM 83.5 °F 91.9 °F 75.9 °F 78% 29.99 in 10.0 mi SSW 4.6 mph - N/A   Scattered Clouds
7:55 PM 82.6 °F 89.4 °F 74.7 °F 77% 29.99 in 10.0 mi SSW 5.8 mph - N/A   Clear
8:15 PM 81.5 °F 87.6 °F 74.7 °F 80% 30.00 in 10.0 mi SSW 4.6 mph - N/A   Clear
8:35 PM 80.6 °F 86.0 °F 75.0 °F 83% 30.01 in 10.0 mi Calm Calm - N/A   Scattered Clouds
8:55 PM 80.1 °F 85.2 °F 75.4 °F 86% 30.02 in 10.0 mi Calm Calm - N/A   Mostly Cloudy
9:35 PM 79.7 °F - 75.6 °F 87% 30.04 in 10.0 mi Calm Calm - N/A   Mostly Cloudy
9:55 PM 79.0 °F - 75.2 °F 88% 30.05 in 10.0 mi Calm Calm - N/A   Scattered Clouds
10:15 PM 78.6 °F - 75.2 °F 89% 30.05 in 10.0 mi Calm Calm - N/A   Clear
10:55 PM 76.8 °F - 74.8 °F 94% 30.06 in 10.0 mi Calm Calm - N/A   Clear
11:15 PM 76.5 °F - 75.2 °F 96% 30.06 in 10.0 mi Calm Calm - N/A   Clear
11:35 PM 76.5 °F - 75.2 °F 96% 30.06 in 10.0 mi South 3.5 mph - N/A   Clear
11:55 PM 76.1 °F - 74.8 °F 96% 30.05 in 10.0 mi Calm Calm - N/A   Clear